Location: Comstock Ranch
(38.0499°N, 120.2627°W)
Time: 20:35:09
(UTC+00:00)

Cosmos 1535 Rocket - Pass Details

Date: 08 September 2024
Orbit: 947 x 1004 km, 83.0° (Epoch: 10 October)

Event Time Altitude Azimuth Distance (km) Brightness Sun altitude
Rises 12:47:44 0° 350° (N) 3,706 7.6 -10.4°
Reaches altitude 10° 12:50:17 10° 348° (NNW) 2,746 6.9 -9.9°
Maximum altitude 12:56:32 70° 266° (W) 1,031 4.5 -8.7°
Drops below altitude 10° 13:02:39 10° 184° (S) 2,689 6.6 -7.6°
Sets 13:05:07 0° 182° (S) 3,625 7.3 -7.1°
